Overview Statistics Trail Chart Weather Telemetry Raw packets
 

This is the latest recevied weather packets stored in our database for station/object M0JUI-1. If no packets are shown the sender has not sent any weather packets the latest 10 day(s).

<< 94 95 96 97 98 99 100 >>
Time Temp. Humidity Pressure Rain* Wind** Luminosity Snow
1787938196 16.67° C 12% 1005 hPa 0 mm - 28 W/m² -
1787937896 17.22° C 12% 1005 hPa 0 mm - 18 W/m² -
1787937596 17.22° C 12% 1004.9 hPa 0 mm - 69 W/m² -
1787937297 17.22° C 12% 1004.7 hPa 0 mm - 92 W/m² -
1787936996 16.67° C 12% 1004.9 hPa 0 mm - 88 W/m² -
1787936696 16.67° C 12% 1004.9 hPa 0 mm - 76 W/m² -
1787936397 16.67° C 12% 1004.9 hPa 0 mm - 53 W/m² -
1787936096 16.67° C 12% 1004.9 hPa 0 mm - 72 W/m² -
1787935796 16.67° C 12% 1004.8 hPa 0 mm - 94 W/m² -
1787935496 16.67° C 12% 1005 hPa 0.76 mm - 63 W/m² -
1787935196 16.67° C 12% 1004.8 hPa 1.02 mm - 33 W/m² -
1787934896 17.22° C 12% 1004.9 hPa 1.27 mm - 72 W/m² -
1787934596 16.67° C 12% 1004.7 hPa 1.78 mm - 94 W/m² -
1787934296 17.22° C 13% 1004.9 hPa 1.78 mm - 105 W/m² -
1787933996 17.22° C 13% 1004.9 hPa 2.29 mm - 108 W/m² -
1787933696 17.22° C 13% 1004.8 hPa 2.54 mm - 158 W/m² -
1787933396 17.22° C 13% 1004.7 hPa 3.05 mm - 180 W/m² -
1787933096 16.67° C 13% 1004.9 hPa 3.3 mm - 214 W/m² -
1787932796 17.22° C 12% 1004.8 hPa 3.3 mm - 188 W/m² -
1787932496 16.67° C 12% 1005.1 hPa 3.3 mm - 216 W/m² -
1787932197 16.67° C 11% 1005 hPa 3.3 mm - 202 W/m² -
1787931897 16.11° C 10% 1004.8 hPa 2.54 mm - 49 W/m² -
1787931596 16.67° C 9% 1004.8 hPa 2.29 mm - 47 W/m² -
1787931297 16.67° C 8% 1004.9 hPa 2.03 mm - 44 W/m² -
1787930997 16.67° C 7% 1004.7 hPa 1.52 mm - 63 W/m² -

* Rain latest hour (hover to see other rain measurements)
** Current wind speed in m/s (hover to see current wind gust speed)